Wetterdaten: Sonntag, 26.07.2015
Datum Zeit Temp. A. Temp. A. min Temp. A. max Feuchte A. Bod.Feucht 4 Luftdruck Regen Wind Richtung Richtung Sonnenschein ET Solar Taupunkt Windchill Windben Empfang
26.07.2015 00:00 10,7 C 10,7 C 10,9 C 80 % 0 cb 1018,9 hPa 0,0 l/m 1,6 km/h (1 Bft) NO 45 0 min 0,025 mm 0 W/m 7,4 C 10,7 C 4,8 km/h (1 Bft) 99,56 %
26.07.2015 00:10 10,8 C 10,7 C 10,8 C 80 % 0 cb 1018,8 hPa 0,0 l/m 3,2 km/h (1 Bft) NO 45 0 min 0,000 mm 0 W/m 7,5 C 10,8 C 6,4 km/h (2 Bft) 100,00 %
26.07.2015 00:20 11,1 C 10,8 C 11,1 C 79 % 0 cb 1018,9 hPa 0,0 l/m 3,2 km/h (1 Bft) O-NO 67 0 min 0,000 mm 0 W/m 7,6 C 11,1 C 8,0 km/h (2 Bft) 100,00 %
26.07.2015 00:30 11,2 C 11,1 C 11,2 C 78 % 0 cb 1018,8 hPa 0,0 l/m 1,6 km/h (1 Bft) O-NO 67 0 min 0,000 mm 0 W/m 7,5 C 11,2 C 6,4 km/h (2 Bft) 100,00 %
26.07.2015 00:40 11,0 C 11,0 C 11,2 C 79 % 0 cb 1018,9 hPa 0,0 l/m 1,6 km/h (1 Bft) O-NO 67 0 min 0,000 mm 0 W/m 7,5 C 11,0 C 4,8 km/h (1 Bft) 99,56 %
26.07.2015 00:50 10,8 C 10,8 C 11,0 C 80 % 0 cb 1018,8 hPa 0,0 l/m 1,6 km/h (1 Bft) O-NO 67 0 min 0,000 mm 0 W/m 7,5 C 10,8 C 4,8 km/h (1 Bft) 100,00 %
26.07.2015 01:00 10,7 C 10,7 C 10,8 C 80 % 0 cb 1018,8 hPa 0,0 l/m 1,6 km/h (1 Bft) O-NO 67 0 min 0,025 mm 0 W/m 7,4 C 10,7 C 6,4 km/h (2 Bft) 100,00 %
26.07.2015 01:10 10,4 C 10,4 C 10,7 C 81 % 0 cb 1018,8 hPa 0,0 l/m 1,6 km/h (1 Bft) N-NO 22 0 min 0,000 mm 0 W/m 7,3 C 10,4 C 4,8 km/h (1 Bft) 100,00 %
26.07.2015 01:20 10,0 C 10,0 C 10,4 C 83 % 0 cb 1018,7 hPa 0,0 l/m 1,6 km/h (1 Bft) N-NO 22 0 min 0,000 mm 0 W/m 7,2 C 10,0 C 3,2 km/h (1 Bft) 100,00 %
26.07.2015 01:30 9,6 C 9,6 C 10,0 C 85 % 0 cb 1018,6 hPa 0,0 l/m 1,6 km/h (1 Bft) N-NO 22 0 min 0,000 mm 0 W/m 7,2 C 9,6 C 4,8 km/h (1 Bft) 100,00 %
26.07.2015 01:40 9,2 C 9,2 C 9,6 C 86 % 0 cb 1018,5 hPa 0,0 l/m 0,0 km/h (0 Bft) N-NO 22 0 min 0,000 mm 0 W/m 7,0 C 9,2 C 3,2 km/h (1 Bft) 100,00 %
26.07.2015 01:50 9,1 C 9,1 C 9,3 C 87 % 0 cb 1018,5 hPa 0,0 l/m 0,0 km/h (0 Bft) N-NO 22 0 min 0,000 mm 0 W/m 7,1 C 9,1 C 3,2 km/h (1 Bft) 100,00 %
26.07.2015 02:00 8,9 C 8,9 C 9,2 C 87 % 0 cb 1018,4 hPa 0,0 l/m 0,0 km/h (0 Bft) N-NO 22 0 min 0,000 mm 0 W/m 6,9 C 8,9 C 3,2 km/h (1 Bft) 100,00 %
26.07.2015 02:10 8,7 C 8,7 C 8,9 C 88 % 0 cb 1018,5 hPa 0,0 l/m 1,6 km/h (1 Bft) N-NO 22 0 min 0,000 mm 0 W/m 6,8 C 8,7 C 4,8 km/h (1 Bft) 100,00 %
26.07.2015 02:20 8,6 C 8,6 C 8,7 C 89 % 0 cb 1018,5 hPa 0,0 l/m 1,6 km/h (1 Bft) NO 45 0 min 0,000 mm 0 W/m 6,9 C 8,6 C 3,2 km/h (1 Bft) 100,00 %
26.07.2015 02:30 8,5 C 8,4 C 8,6 C 89 % 0 cb 1018,4 hPa 0,0 l/m 1,6 km/h (1 Bft) O-NO 67 0 min 0,000 mm 0 W/m 6,8 C 8,5 C 3,2 km/h (1 Bft) 99,56 %
26.07.2015 02:40 8,4 C 8,4 C 8,5 C 89 % 0 cb 1018,4 hPa 0,0 l/m 1,6 km/h (1 Bft) O 90 0 min 0,000 mm 0 W/m 6,7 C 8,4 C 3,2 km/h (1 Bft) 100,00 %
26.07.2015 02:50 8,3 C 8,3 C 8,4 C 90 % 0 cb 1018,5 hPa 0,0 l/m 0,0 km/h (0 Bft) O 90 0 min 0,000 mm 0 W/m 6,8 C 8,3 C 3,2 km/h (1 Bft) 100,00 %
26.07.2015 03:00 8,2 C 8,2 C 8,3 C 90 % 0 cb 1018,5 hPa 0,0 l/m 1,6 km/h (1 Bft) S-SW 202 0 min 0,000 mm 0 W/m 6,7 C 8,2 C 4,8 km/h (1 Bft) 100,00 %
26.07.2015 03:10 7,9 C 7,9 C 8,1 C 90 % 0 cb 1018,6 hPa 0,0 l/m 1,6 km/h (1 Bft) S-SW 202 0 min 0,000 mm 0 W/m 6,4 C 7,9 C 3,2 km/h (1 Bft) 100,00 %
26.07.2015 03:20 7,8 C 7,8 C 7,9 C 90 % 0 cb 1018,6 hPa 0,0 l/m 0,0 km/h (0 Bft) S-SW 202 0 min 0,000 mm 0 W/m 6,3 C 7,8 C 1,6 km/h (1 Bft) 100,00 %
26.07.2015 03:30 7,6 C 7,6 C 7,7 C 91 % 0 cb 1018,5 hPa 0,0 l/m 0,0 km/h (0 Bft) S-SW 202 0 min 0,000 mm 0 W/m 6,2 C 7,6 C 1,6 km/h (1 Bft) 100,00 %
26.07.2015 03:40 7,4 C 7,4 C 7,6 C 91 % 0 cb 1018,5 hPa 0,0 l/m 0,0 km/h (0 Bft) S-SW 202 0 min 0,000 mm 0 W/m 6,0 C 7,4 C 1,6 km/h (1 Bft) 100,00 %
26.07.2015 03:50 7,4 C 7,4 C 7,5 C 92 % 0 cb 1018,6 hPa 0,0 l/m 0,0 km/h (0 Bft) S-SW 202 0 min 0,000 mm 0 W/m 6,2 C 7,4 C 3,2 km/h (1 Bft) 100,00 %
26.07.2015 04:00 7,3 C 7,3 C 7,4 C 92 % 0 cb 1018,6 hPa 0,0 l/m 0,0 km/h (0 Bft) S-SW 202 0 min 0,000 mm 0 W/m 6,1 C 7,3 C 1,6 km/h (1 Bft) 100,00 %
26.07.2015 04:10 7,2 C 7,2 C 7,3 C 92 % 0 cb 1018,6 hPa 0,0 l/m 0,0 km/h (0 Bft) S-SW 202 0 min 0,000 mm 0 W/m 6,0 C 7,2 C 1,6 km/h (1 Bft) 100,00 %
26.07.2015 04:20 7,2 C 7,1 C 7,2 C 93 % 0 cb 1018,4 hPa 0,0 l/m 0,0 km/h (0 Bft) S-SW 202 0 min 0,000 mm 0 W/m 6,1 C 7,2 C 3,2 km/h (1 Bft) 100,00 %
26.07.2015 04:30 7,2 C 7,2 C 7,3 C 93 % 0 cb 1018,5 hPa 0,0 l/m 0,0 km/h (0 Bft) S-SW 202 0 min 0,000 mm 0 W/m 6,1 C 7,2 C 3,2 km/h (1 Bft) 100,00 %
26.07.2015 04:40 7,2 C 7,2 C 7,3 C 93 % 0 cb 1018,6 hPa 0,0 l/m 0,0 km/h (0 Bft) S-SW 202 0 min 0,000 mm 0 W/m 6,1 C 7,2 C 1,6 km/h (1 Bft) 100,00 %
26.07.2015 04:50 7,1 C 7,1 C 7,2 C 92 % 0 cb 1018,6 hPa 0,0 l/m 0,0 km/h (0 Bft) S-SW 202 0 min 0,000 mm 0 W/m 5,9 C 7,1 C 1,6 km/h (1 Bft) 100,00 %
26.07.2015 05:00 7,0 C 7,0 C 7,1 C 93 % 0 cb 1018,5 hPa 0,0 l/m 0,0 km/h (0 Bft) S-SW 202 0 min 0,000 mm 0 W/m 5,9 C 7,0 C 1,6 km/h (1 Bft) 100,00 %
26.07.2015 05:10 7,0 C 7,0 C 7,1 C 93 % 0 cb 1018,5 hPa 0,0 l/m 0,0 km/h (0 Bft) S-SW 202 0 min 0,000 mm 0 W/m 5,9 C 7,0 C 1,6 km/h (1 Bft) 100,00 %
26.07.2015 05:20 7,0 C 7,0 C 7,1 C 93 % 0 cb 1018,5 hPa 0,0 l/m 0,0 km/h (0 Bft) S-SW 202 0 min 0,000 mm 0 W/m 5,9 C 7,0 C 1,6 km/h (1 Bft) 100,00 %
26.07.2015 05:30 7,1 C 7,0 C 7,1 C 94 % 0 cb 1018,5 hPa 0,0 l/m 0,0 km/h (0 Bft) S-SW 202 0 min 0,000 mm 0 W/m 6,2 C 7,1 C 3,2 km/h (1 Bft) 100,00 %
26.07.2015 05:40 7,0 C 7,0 C 7,1 C 93 % 0 cb 1018,5 hPa 0,0 l/m 0,0 km/h (0 Bft) S-SW 202 0 min 0,000 mm 0 W/m 5,9 C 7,0 C 1,6 km/h (1 Bft) 100,00 %
26.07.2015 05:50 6,8 C 6,8 C 7,0 C 93 % 0 cb 1018,5 hPa 0,0 l/m 0,0 km/h (0 Bft) S-SW 202 0 min 0,000 mm 0 W/m 5,7 C 6,8 C 1,6 km/h (1 Bft) 100,00 %
26.07.2015 06:00 6,7 C 6,7 C 6,8 C 93 % 0 cb 1018,5 hPa 0,0 l/m 0,0 km/h (0 Bft) S-SW 202 0 min 0,000 mm 5 W/m 5,6 C 6,7 C 1,6 km/h (1 Bft) 100,00 %
26.07.2015 06:10 6,6 C 6,6 C 6,7 C 93 % 0 cb 1018,4 hPa 0,0 l/m 0,0 km/h (0 Bft) N 0 0 min 0,000 mm 9 W/m 5,6 C 6,6 C 0,0 km/h (0 Bft) 100,00 %
26.07.2015 06:20 6,6 C 6,5 C 6,6 C 94 % 0 cb 1018,5 hPa 0,0 l/m 0,0 km/h (0 Bft) S-SW 202 0 min 0,000 mm 16 W/m 5,7 C 6,6 C 1,6 km/h (1 Bft) 99,12 %
26.07.2015 06:30 6,7 C 6,5 C 6,7 C 94 % 0 cb 1018,4 hPa 0,0 l/m 0,0 km/h (0 Bft) S-SW 202 0 min 0,000 mm 21 W/m 5,8 C 6,7 C 1,6 km/h (1 Bft) 99,12 %
26.07.2015 06:40 6,8 C 6,7 C 6,8 C 95 % 0 cb 1018,4 hPa 0,0 l/m 0,0 km/h (0 Bft) S-SW 202 0 min 0,000 mm 26 W/m 6,1 C 6,8 C 1,6 km/h (1 Bft) 100,00 %
26.07.2015 06:50 7,0 C 6,8 C 7,0 C 95 % 0 cb 1018,4 hPa 0,0 l/m 1,6 km/h (1 Bft) S-SW 202 0 min 0,000 mm 62 W/m 6,3 C 7,0 C 3,2 km/h (1 Bft) 100,00 %
26.07.2015 07:00 7,7 C 7,0 C 7,7 C 96 % 0 cb 1018,3 hPa 0,0 l/m 1,6 km/h (1 Bft) S-SW 202 0 min 0,000 mm 69 W/m 7,1 C 7,7 C 3,2 km/h (1 Bft) 100,00 %
26.07.2015 07:10 8,1 C 7,7 C 8,1 C 95 % 0 cb 1018,4 hPa 0,0 l/m 0,0 km/h (0 Bft) S-SW 202 0 min 0,000 mm 105 W/m 7,3 C 8,1 C 3,2 km/h (1 Bft) 100,00 %
26.07.2015 07:20 8,6 C 8,1 C 8,6 C 95 % 0 cb 1018,4 hPa 0,0 l/m 0,0 km/h (0 Bft) S-SW 202 0 min 0,000 mm 132 W/m 7,8 C 8,6 C 1,6 km/h (1 Bft) 99,12 %
26.07.2015 07:30 9,5 C 8,6 C 9,5 C 93 % 0 cb 1018,3 hPa 0,0 l/m 0,0 km/h (0 Bft) S-SW 202 10 min 0,000 mm 158 W/m 8,4 C 9,5 C 1,6 km/h (1 Bft) 100,00 %
26.07.2015 07:40 9,9 C 9,5 C 9,9 C 91 % 0 cb 1018,4 hPa 0,0 l/m 0,0 km/h (0 Bft) S-SW 202 10 min 0,000 mm 183 W/m 8,5 C 9,9 C 3,2 km/h (1 Bft) 100,00 %
26.07.2015 07:50 10,2 C 9,9 C 10,2 C 90 % 0 cb 1018,3 hPa 0,0 l/m 0,0 km/h (0 Bft) S-SW 202 10 min 0,000 mm 213 W/m 8,6 C 10,2 C 1,6 km/h (1 Bft) 100,00 %
26.07.2015 08:00 10,9 C 10,3 C 10,9 C 89 % 0 cb 1018,3 hPa 0,0 l/m 1,6 km/h (1 Bft) S-SW 202 10 min 0,076 mm 251 W/m 9,2 C 10,9 C 3,2 km/h (1 Bft) 100,00 %
26.07.2015 08:10 12,2 C 10,9 C 12,2 C 86 % 0 cb 1018,3 hPa 0,0 l/m 1,6 km/h (1 Bft) W-SW 247 10 min 0,000 mm 290 W/m 9,9 C 12,2 C 4,8 km/h (1 Bft) 100,00 %
26.07.2015 08:20 13,0 C 12,2 C 13,0 C 80 % 0 cb 1018,2 hPa 0,0 l/m 1,6 km/h (1 Bft) W 270 10 min 0,000 mm 320 W/m 9,6 C 13,0 C 4,8 km/h (1 Bft) 100,00 %
26.07.2015 08:30 13,4 C 13,1 C 13,4 C 77 % 0 cb 1018,1 hPa 0,0 l/m 3,2 km/h (1 Bft) SW 225 10 min 0,000 mm 329 W/m 9,5 C 13,4 C 8,0 km/h (2 Bft) 100,00 %
26.07.2015 08:40 13,6 C 13,4 C 13,6 C 76 % 0 cb 1018,0 hPa 0,0 l/m 1,6 km/h (1 Bft) SW 225 10 min 0,000 mm 406 W/m 9,4 C 13,6 C 9,7 km/h (2 Bft) 100,00 %
26.07.2015 08:50 13,9 C 13,5 C 13,9 C 74 % 0 cb 1018,0 hPa 0,0 l/m 1,6 km/h (1 Bft) SW 225 10 min 0,000 mm 425 W/m 9,3 C 13,9 C 9,7 km/h (2 Bft) 100,00 %
26.07.2015 09:00 14,6 C 14,0 C 14,6 C 73 % 0 cb 1017,9 hPa 0,0 l/m 1,6 km/h (1 Bft) W-NW 292 10 min 0,178 mm 427 W/m 9,8 C 14,6 C 6,4 km/h (2 Bft) 100,00 %
26.07.2015 09:10 15,2 C 14,6 C 15,2 C 73 % 0 cb 1017,9 hPa 0,0 l/m 1,6 km/h (1 Bft) W-NW 292 10 min 0,000 mm 450 W/m 10,4 C 15,2 C 6,4 km/h (2 Bft) 100,00 %
26.07.2015 09:20 15,8 C 15,2 C 15,8 C 68 % 0 cb 1018,0 hPa 0,0 l/m 0,0 km/h (0 Bft) W-NW 292 10 min 0,000 mm 448 W/m 9,9 C 15,8 C 3,2 km/h (1 Bft) 99,12 %
26.07.2015 09:30 16,3 C 15,8 C 16,3 C 67 % 0 cb 1017,8 hPa 0,0 l/m 1,6 km/h (1 Bft) N-NW 337 10 min 0,000 mm 499 W/m 10,2 C 16,3 C 6,4 km/h (2 Bft) 100,00 %
26.07.2015 09:40 16,4 C 16,2 C 16,4 C 66 % 0 cb 1017,7 hPa 0,0 l/m 1,6 km/h (1 Bft) W-NW 292 10 min 0,000 mm 524 W/m 10,0 C 16,4 C 6,4 km/h (2 Bft) 100,00 %
26.07.2015 09:50 16,5 C 16,3 C 16,5 C 65 % 0 cb 1017,6 hPa 0,0 l/m 1,6 km/h (1 Bft) NW 315 10 min 0,000 mm 552 W/m 9,9 C 16,5 C 6,4 km/h (2 Bft) 99,56 %
26.07.2015 10:00 16,9 C 16,6 C 16,9 C 64 % 0 cb 1017,5 hPa 0,0 l/m 3,2 km/h (1 Bft) NW 315 10 min 0,279 mm 584 W/m 10,0 C 16,9 C 11,3 km/h (2 Bft) 100,00 %
26.07.2015 10:10 17,2 C 16,9 C 17,2 C 60 % 0 cb 1017,4 hPa 0,0 l/m 4,8 km/h (1 Bft) W-NW 292 10 min 0,000 mm 596 W/m 9,4 C 17,2 C 11,3 km/h (2 Bft) 100,00 %
26.07.2015 10:20 17,6 C 17,2 C 17,6 C 61 % 0 cb 1017,2 hPa 0,0 l/m 4,8 km/h (1 Bft) NW 315 10 min 0,000 mm 621 W/m 10,0 C 17,6 C 12,9 km/h (3 Bft) 100,00 %
26.07.2015 10:30 17,9 C 17,6 C 17,9 C 60 % 0 cb 1017,1 hPa 0,0 l/m 4,8 km/h (1 Bft) N-NW 337 10 min 0,000 mm 643 W/m 10,0 C 17,9 C 16,1 km/h (3 Bft) 100,00 %
26.07.2015 10:40 18,2 C 18,0 C 18,2 C 56 % 0 cb 1017,0 hPa 0,0 l/m 4,8 km/h (1 Bft) NW 315 10 min 0,000 mm 666 W/m 9,3 C 18,2 C 12,9 km/h (3 Bft) 100,00 %
26.07.2015 10:50 18,3 C 18,1 C 18,3 C 56 % 0 cb 1016,9 hPa 0,0 l/m 4,8 km/h (1 Bft) NW 315 10 min 0,000 mm 696 W/m 9,4 C 18,3 C 11,3 km/h (2 Bft) 100,00 %
26.07.2015 11:00 18,6 C 18,3 C 18,6 C 55 % 0 cb 1016,7 hPa 0,0 l/m 4,8 km/h (1 Bft) NW 315 10 min 0,381 mm 708 W/m 9,4 C 18,6 C 12,9 km/h (3 Bft) 97,81 %
26.07.2015 11:10 18,9 C 18,6 C 18,9 C 54 % 0 cb 1016,5 hPa 0,0 l/m 4,8 km/h (1 Bft) N-NW 337 10 min 0,000 mm 738 W/m 9,4 C 18,9 C 14,5 km/h (3 Bft) 100,00 %
26.07.2015 11:20 19,2 C 18,9 C 19,2 C 51 % 0 cb 1016,1 hPa 0,0 l/m 4,8 km/h (1 Bft) W-NW 292 10 min 0,000 mm 775 W/m 8,8 C 19,2 C 16,1 km/h (3 Bft) 100,00 %
26.07.2015 11:30 19,1 C 19,1 C 19,2 C 50 % 0 cb 1015,9 hPa 0,0 l/m 6,4 km/h (2 Bft) W-NW 292 10 min 0,000 mm 837 W/m 8,4 C 19,1 C 17,7 km/h (3 Bft) 97,37 %
26.07.2015 11:40 19,4 C 19,1 C 19,4 C 48 % 0 cb 1015,9 hPa 0,0 l/m 4,8 km/h (1 Bft) NW 315 10 min 0,000 mm 882 W/m 8,1 C 19,4 C 17,7 km/h (3 Bft) 100,00 %
26.07.2015 11:50 19,6 C 19,3 C 19,6 C 50 % 0 cb 1015,6 hPa 0,0 l/m 4,8 km/h (1 Bft) W-NW 292 10 min 0,000 mm 909 W/m 8,9 C 19,6 C 14,5 km/h (3 Bft) 100,00 %
26.07.2015 12:00 20,1 C 19,6 C 20,1 C 47 % 0 cb 1015,5 hPa 0,0 l/m 4,8 km/h (1 Bft) NW 315 10 min 0,483 mm 884 W/m 8,4 C 20,1 C 14,5 km/h (3 Bft) 96,93 %
26.07.2015 12:10 20,0 C 20,0 C 20,2 C 46 % 0 cb 1015,3 hPa 0,0 l/m 4,8 km/h (1 Bft) W 270 10 min 0,000 mm 963 W/m 8,0 C 20,0 C 14,5 km/h (3 Bft) 100,00 %
26.07.2015 12:20 20,3 C 19,9 C 20,3 C 43 % 0 cb 1015,0 hPa 0,0 l/m 4,8 km/h (1 Bft) N-NW 337 10 min 0,000 mm 1013 W/m 7,3 C 20,3 C 16,1 km/h (3 Bft) 97,81 %
26.07.2015 12:30 20,6 C 20,3 C 20,6 C 46 % 0 cb 1014,9 hPa 0,0 l/m 6,4 km/h (2 Bft) W-NW 292 10 min 0,000 mm 953 W/m 8,6 C 20,6 C 17,7 km/h (3 Bft) 94,74 %
26.07.2015 12:40 20,6 C 20,6 C 20,7 C 45 % 0 cb 1014,8 hPa 0,0 l/m 4,8 km/h (1 Bft) NW 315 10 min 0,000 mm 1027 W/m 8,2 C 20,6 C 12,9 km/h (3 Bft) 92,54 %
26.07.2015 12:50 20,1 C 20,1 C 20,6 C 46 % 0 cb 1014,5 hPa 0,0 l/m 4,8 km/h (1 Bft) NW 315 10 min 0,000 mm 956 W/m 8,1 C 20,1 C 17,7 km/h (3 Bft) 98,25 %
26.07.2015 13:00 19,9 C 19,9 C 20,1 C 46 % 0 cb 1014,4 hPa 0,0 l/m 4,8 km/h (1 Bft) N-NW 337 10 min 0,457 mm 981 W/m 7,9 C 19,9 C 12,9 km/h (3 Bft) 96,93 %
26.07.2015 13:10 20,4 C 19,9 C 20,4 C 47 % 0 cb 1014,4 hPa 0,0 l/m 8,0 km/h (2 Bft) W-NW 292 10 min 0,000 mm 1000 W/m 8,7 C 20,4 C 19,3 km/h (3 Bft) 95,18 %
26.07.2015 13:20 20,7 C 20,4 C 20,7 C 46 % 0 cb 1014,3 hPa 0,0 l/m 8,0 km/h (2 Bft) N-NW 337 10 min 0,000 mm 962 W/m 8,7 C 20,7 C 17,7 km/h (3 Bft) 95,61 %
26.07.2015 13:30 20,8 C 20,7 C 20,8 C 45 % 0 cb 1014,0 hPa 0,0 l/m 3,2 km/h (1 Bft) N-NO 22 10 min 0,000 mm 916 W/m 8,4 C 20,8 C 14,5 km/h (3 Bft) 97,81 %
26.07.2015 13:40 20,9 C 20,8 C 21,0 C 42 % 0 cb 1013,7 hPa 0,0 l/m 4,8 km/h (1 Bft) N 360 10 min 0,000 mm 527 W/m 7,5 C 20,9 C 16,1 km/h (3 Bft) 95,18 %
26.07.2015 13:50 20,8 C 20,7 C 20,9 C 47 % 0 cb 1013,4 hPa 0,0 l/m 6,4 km/h (2 Bft) NW 315 10 min 0,000 mm 577 W/m 9,1 C 20,8 C 17,7 km/h (3 Bft) 100,00 %
26.07.2015 14:00 20,6 C 20,6 C 20,7 C 44 % 0 cb 1013,2 hPa 0,0 l/m 6,4 km/h (2 Bft) NW 315 10 min 0,432 mm 534 W/m 7,9 C 20,6 C 17,7 km/h (3 Bft) 100,00 %
26.07.2015 14:10 20,5 C 20,4 C 20,6 C 44 % 0 cb 1013,2 hPa 0,0 l/m 4,8 km/h (1 Bft) W-NW 292 10 min 0,000 mm 385 W/m 7,8 C 20,5 C 12,9 km/h (3 Bft) 98,25 %
26.07.2015 14:20 20,6 C 20,5 C 20,7 C 46 % 0 cb 1013,2 hPa 0,0 l/m 3,2 km/h (1 Bft) NW 315 10 min 0,000 mm 374 W/m 8,6 C 20,6 C 14,5 km/h (3 Bft) 100,00 %
26.07.2015 14:30 20,3 C 20,3 C 20,6 C 44 % 0 cb 1013,0 hPa 0,0 l/m 4,8 km/h (1 Bft) W 270 10 min 0,000 mm 329 W/m 7,6 C 20,3 C 14,5 km/h (3 Bft) 100,00 %
26.07.2015 14:40 20,3 C 20,3 C 20,4 C 44 % 0 cb 1012,9 hPa 0,0 l/m 4,8 km/h (1 Bft) W-NW 292 10 min 0,000 mm 408 W/m 7,6 C 20,3 C 12,9 km/h (3 Bft) 100,00 %
26.07.2015 14:50 20,6 C 20,4 C 20,6 C 45 % 0 cb 1012,8 hPa 0,0 l/m 4,8 km/h (1 Bft) NW 315 10 min 0,000 mm 408 W/m 8,2 C 20,6 C 12,9 km/h (3 Bft) 100,00 %
26.07.2015 15:00 20,4 C 20,4 C 20,6 C 46 % 0 cb 1012,5 hPa 0,0 l/m 6,4 km/h (2 Bft) W-NW 292 10 min 0,254 mm 330 W/m 8,4 C 20,4 C 12,9 km/h (3 Bft) 100,00 %
26.07.2015 15:10 20,2 C 20,2 C 20,4 C 45 % 0 cb 1012,2 hPa 0,0 l/m 6,4 km/h (2 Bft) W-NW 292 10 min 0,000 mm 362 W/m 7,9 C 20,2 C 19,3 km/h (3 Bft) 100,00 %
26.07.2015 15:20 20,4 C 20,2 C 20,4 C 46 % 0 cb 1012,0 hPa 0,0 l/m 4,8 km/h (1 Bft) W 270 10 min 0,000 mm 443 W/m 8,4 C 20,4 C 11,3 km/h (2 Bft) 99,56 %
26.07.2015 15:30 20,6 C 20,4 C 20,6 C 44 % 0 cb 1011,9 hPa 0,0 l/m 4,8 km/h (1 Bft) W-NW 292 10 min 0,000 mm 411 W/m 7,9 C 20,6 C 17,7 km/h (3 Bft) 100,00 %
26.07.2015 15:40 20,2 C 20,2 C 20,6 C 46 % 0 cb 1011,8 hPa 0,0 l/m 6,4 km/h (2 Bft) W-NW 292 10 min 0,000 mm 297 W/m 8,2 C 20,2 C 16,1 km/h (3 Bft) 100,00 %
26.07.2015 15:50 19,8 C 19,8 C 20,2 C 46 % 0 cb 1011,7 hPa 0,0 l/m 6,4 km/h (2 Bft) W-NW 292 10 min 0,000 mm 248 W/m 7,8 C 19,8 C 17,7 km/h (3 Bft) 100,00 %
26.07.2015 16:00 19,6 C 19,6 C 19,8 C 46 % 0 cb 1011,4 hPa 0,0 l/m 4,8 km/h (1 Bft) W-NW 292 10 min 0,229 mm 211 W/m 7,7 C 19,6 C 14,5 km/h (3 Bft) 100,00 %
26.07.2015 16:10 19,3 C 19,3 C 19,6 C 47 % 0 cb 1011,3 hPa 0,0 l/m 3,2 km/h (1 Bft) W-NW 292 10 min 0,000 mm 185 W/m 7,7 C 19,3 C 11,3 km/h (2 Bft) 100,00 %
26.07.2015 16:20 19,3 C 19,3 C 19,3 C 46 % 0 cb 1011,2 hPa 0,0 l/m 4,8 km/h (1 Bft) W-NW 292 10 min 0,000 mm 237 W/m 7,4 C 19,3 C 12,9 km/h (3 Bft) 100,00 %
26.07.2015 16:30 19,4 C 19,3 C 19,4 C 47 % 0 cb 1011,0 hPa 0,0 l/m 4,8 km/h (1 Bft) W-NW 292 10 min 0,000 mm 271 W/m 7,8 C 19,4 C 11,3 km/h (2 Bft) 100,00 %
26.07.2015 16:40 19,7 C 19,4 C 19,7 C 47 % 0 cb 1010,7 hPa 0,0 l/m 4,8 km/h (1 Bft) NW 315 10 min 0,000 mm 283 W/m 8,1 C 19,7 C 14,5 km/h (3 Bft) 100,00 %
26.07.2015 16:50 19,7 C 19,7 C 19,7 C 45 % 0 cb 1010,7 hPa 0,0 l/m 4,8 km/h (1 Bft) W-NW 292 10 min 0,000 mm 244 W/m 7,4 C 19,7 C 11,3 km/h (2 Bft) 100,00 %
26.07.2015 17:00 19,6 C 19,6 C 19,7 C 47 % 0 cb 1010,5 hPa 0,0 l/m 3,2 km/h (1 Bft) W 270 10 min 0,152 mm 169 W/m 8,0 C 19,6 C 11,3 km/h (2 Bft) 100,00 %
26.07.2015 17:10 19,3 C 19,3 C 19,6 C 47 % 0 cb 1010,3 hPa 0,0 l/m 4,8 km/h (1 Bft) W-NW 292 0 min 0,000 mm 139 W/m 7,7 C 19,3 C 11,3 km/h (2 Bft) 100,00 %
26.07.2015 17:20 19,2 C 19,2 C 19,3 C 48 % 0 cb 1010,2 hPa 0,0 l/m 3,2 km/h (1 Bft) W-NW 292 0 min 0,000 mm 139 W/m 7,9 C 19,2 C 9,7 km/h (2 Bft) 100,00 %
26.07.2015 17:30 19,1 C 19,1 C 19,2 C 49 % 0 cb 1010,3 hPa 0,0 l/m 3,2 km/h (1 Bft) W-NW 292 0 min 0,000 mm 121 W/m 8,1 C 19,1 C 9,7 km/h (2 Bft) 100,00 %
26.07.2015 17:40 19,0 C 19,0 C 19,1 C 49 % 0 cb 1010,2 hPa 0,0 l/m 3,2 km/h (1 Bft) W-NW 292 0 min 0,000 mm 102 W/m 8,0 C 19,0 C 8,0 km/h (2 Bft) 100,00 %
26.07.2015 17:50 18,9 C 18,9 C 19,0 C 50 % 0 cb 1010,2 hPa 0,0 l/m 1,6 km/h (1 Bft) W-NW 292 0 min 0,000 mm 107 W/m 8,2 C 18,9 C 6,4 km/h (2 Bft) 100,00 %
26.07.2015 18:00 18,9 C 18,9 C 18,9 C 50 % 0 cb 1010,0 hPa 0,0 l/m 1,6 km/h (1 Bft) NW 315 0 min 0,102 mm 105 W/m 8,2 C 18,9 C 8,0 km/h (2 Bft) 100,00 %
26.07.2015 18:10 18,9 C 18,9 C 18,9 C 52 % 0 cb 1009,8 hPa 0,0 l/m 1,6 km/h (1 Bft) W 270 0 min 0,000 mm 123 W/m 8,8 C 18,9 C 9,7 km/h (2 Bft) 99,12 %
26.07.2015 18:20 18,8 C 18,8 C 18,9 C 51 % 0 cb 1009,8 hPa 0,0 l/m 3,2 km/h (1 Bft) W-NW 292 0 min 0,000 mm 107 W/m 8,4 C 18,8 C 6,4 km/h (2 Bft) 100,00 %
26.07.2015 18:30 18,7 C 18,7 C 18,8 C 55 % 0 cb 1009,6 hPa 0,0 l/m 1,6 km/h (1 Bft) W-NW 292 0 min 0,000 mm 70 W/m 9,5 C 18,7 C 6,4 km/h (2 Bft) 100,00 %
26.07.2015 18:40 18,5 C 18,5 C 18,7 C 59 % 0 cb 1009,6 hPa 0,0 l/m 0,0 km/h (0 Bft) W-NW 292 0 min 0,000 mm 70 W/m 10,3 C 18,5 C 3,2 km/h (1 Bft) 99,56 %
26.07.2015 18:50 18,2 C 18,2 C 18,5 C 57 % 0 cb 1009,6 hPa 0,0 l/m 1,6 km/h (1 Bft) W-SW 247 0 min 0,000 mm 60 W/m 9,5 C 18,2 C 4,8 km/h (1 Bft) 100,00 %
26.07.2015 19:00 17,9 C 17,9 C 18,2 C 64 % 0 cb 1009,5 hPa 0,0 l/m 0,0 km/h (0 Bft) W-NW 292 0 min 0,051 mm 46 W/m 11,0 C 17,9 C 3,2 km/h (1 Bft) 100,00 %
26.07.2015 19:10 17,7 C 17,7 C 17,9 C 67 % 0 cb 1009,2 hPa 0,0 l/m 0,0 km/h (0 Bft) W-NW 292 0 min 0,000 mm 33 W/m 11,5 C 17,7 C 3,2 km/h (1 Bft) 100,00 %
26.07.2015 19:20 17,3 C 17,3 C 17,7 C 75 % 0 cb 1009,1 hPa 0,4 l/m 0,0 km/h (0 Bft) W-NW 292 0 min 0,000 mm 25 W/m 12,8 C 17,3 C 1,6 km/h (1 Bft) 98,68 %
26.07.2015 19:30 16,7 C 16,7 C 17,3 C 76 % 0 cb 1008,9 hPa 0,2 l/m 0,0 km/h (0 Bft) W-NW 292 0 min 0,000 mm 19 W/m 12,4 C 16,7 C 1,6 km/h (1 Bft) 100,00 %
26.07.2015 19:40 16,1 C 16,1 C 16,7 C 80 % 0 cb 1008,7 hPa 0,2 l/m 0,0 km/h (0 Bft) W-NW 292 0 min 0,000 mm 26 W/m 12,6 C 16,1 C 1,6 km/h (1 Bft) 100,00 %
26.07.2015 19:50 15,6 C 15,6 C 16,1 C 82 % 0 cb 1008,9 hPa 0,0 l/m 1,6 km/h (1 Bft) W-NW 292 0 min 0,000 mm 25 W/m 12,5 C 15,6 C 3,2 km/h (1 Bft) 100,00 %
26.07.2015 20:00 15,2 C 15,2 C 15,6 C 85 % 0 cb 1008,9 hPa 0,0 l/m 1,6 km/h (1 Bft) N 360 0 min 0,025 mm 16 W/m 12,7 C 15,2 C 3,2 km/h (1 Bft) 99,56 %
26.07.2015 20:10 14,7 C 14,7 C 15,1 C 85 % 0 cb 1009,1 hPa 0,0 l/m 0,0 km/h (0 Bft) N 360 0 min 0,000 mm 9 W/m 12,2 C 14,7 C 3,2 km/h (1 Bft) 100,00 %
26.07.2015 20:20 14,4 C 14,4 C 14,7 C 86 % 0 cb 1009,2 hPa 0,4 l/m 1,6 km/h (1 Bft) N-NO 22 0 min 0,000 mm 12 W/m 12,1 C 14,4 C 4,8 km/h (1 Bft) 100,00 %
26.07.2015 20:30 14,2 C 14,2 C 14,4 C 88 % 0 cb 1009,4 hPa 0,2 l/m 3,2 km/h (1 Bft) N-NO 22 0 min 0,000 mm 18 W/m 12,2 C 14,2 C 8,0 km/h (2 Bft) 100,00 %
26.07.2015 20:40 13,9 C 13,9 C 14,1 C 87 % 0 cb 1009,5 hPa 0,2 l/m 3,2 km/h (1 Bft) NO 45 0 min 0,000 mm 30 W/m 11,8 C 13,9 C 17,7 km/h (3 Bft) 88,16 %
26.07.2015 20:50 13,5 C 13,5 C 13,9 C 87 % 0 cb 1009,4 hPa 0,2 l/m 6,4 km/h (2 Bft) N-NO 22 0 min 0,000 mm 26 W/m 11,4 C 13,5 C 17,7 km/h (3 Bft) 89,04 %
26.07.2015 21:00 13,2 C 13,2 C 13,5 C 87 % 0 cb 1009,4 hPa 0,0 l/m 4,8 km/h (1 Bft) N 360 0 min 0,025 mm 18 W/m 11,1 C 13,2 C 14,5 km/h (3 Bft) 100,00 %
26.07.2015 21:10 12,9 C 12,8 C 13,2 C 88 % 0 cb 1009,3 hPa 0,0 l/m 4,8 km/h (1 Bft) N-NO 22 0 min 0,000 mm 12 W/m 11,0 C 12,9 C 16,1 km/h (3 Bft) 98,68 %
26.07.2015 21:20 12,7 C 12,7 C 12,8 C 88 % 0 cb 1009,0 hPa 0,0 l/m 3,2 km/h (1 Bft) N-NO 22 0 min 0,000 mm 0 W/m 10,8 C 12,7 C 8,0 km/h (2 Bft) 99,56 %
26.07.2015 21:30 12,6 C 12,6 C 12,7 C 89 % 0 cb 1008,7 hPa 0,0 l/m 3,2 km/h (1 Bft) N-NW 337 0 min 0,000 mm 0 W/m 10,8 C 12,6 C 8,0 km/h (2 Bft) 100,00 %
26.07.2015 21:40 12,5 C 12,5 C 12,6 C 90 % 0 cb 1008,7 hPa 0,0 l/m 1,6 km/h (1 Bft) N-NW 337 0 min 0,000 mm 0 W/m 10,9 C 12,5 C 3,2 km/h (1 Bft) 99,56 %
26.07.2015 21:50 12,4 C 12,4 C 12,5 C 89 % 0 cb 1008,6 hPa 0,0 l/m 1,6 km/h (1 Bft) N-NW 337 0 min 0,000 mm 0 W/m 10,6 C 12,4 C 3,2 km/h (1 Bft) 100,00 %
26.07.2015 22:00 12,4 C 12,4 C 12,4 C 90 % 0 cb 1008,4 hPa 0,0 l/m 0,0 km/h (0 Bft) N-NW 337 0 min 0,000 mm 0 W/m 10,8 C 12,4 C 3,2 km/h (1 Bft) 100,00 %
26.07.2015 22:10 12,4 C 12,4 C 12,4 C 91 % 0 cb 1008,4 hPa 0,0 l/m 0,0 km/h (0 Bft) N-NW 337 0 min 0,000 mm 0 W/m 11,0 C 12,4 C 3,2 km/h (1 Bft) 100,00 %
26.07.2015 22:20 12,4 C 12,4 C 12,4 C 92 % 0 cb 1008,3 hPa 0,0 l/m 1,6 km/h (1 Bft) N-NW 337 0 min 0,000 mm 0 W/m 11,1 C 12,4 C 3,2 km/h (1 Bft) 100,00 %
26.07.2015 22:30 12,4 C 12,4 C 12,4 C 93 % 0 cb 1008,2 hPa 0,0 l/m 1,6 km/h (1 Bft) N-NW 337 0 min 0,000 mm 0 W/m 11,3 C 12,4 C 4,8 km/h (1 Bft) 100,00 %
26.07.2015 22:40 12,4 C 12,4 C 12,5 C 93 % 0 cb 1008,2 hPa 0,0 l/m 1,6 km/h (1 Bft) N-NW 337 0 min 0,000 mm 0 W/m 11,3 C 12,4 C 4,8 km/h (1 Bft) 100,00 %
26.07.2015 22:50 12,4 C 12,4 C 12,4 C 92 % 0 cb 1008,1 hPa 0,0 l/m 1,6 km/h (1 Bft) NW 315 0 min 0,000 mm 0 W/m 11,1 C 12,4 C 6,4 km/h (2 Bft) 100,00 %
26.07.2015 23:00 12,4 C 12,4 C 12,4 C 92 % 0 cb 1008,1 hPa 0,0 l/m 1,6 km/h (1 Bft) N 360 0 min 0,000 mm 0 W/m 11,1 C 12,4 C 4,8 km/h (1 Bft) 100,00 %
26.07.2015 23:10 12,4 C 12,4 C 12,4 C 92 % 0 cb 1008,0 hPa 0,0 l/m 1,6 km/h (1 Bft) N-NW 337 0 min 0,000 mm 0 W/m 11,1 C 12,4 C 4,8 km/h (1 Bft) 100,00 %
26.07.2015 23:20 12,3 C 12,3 C 12,4 C 92 % 0 cb 1007,8 hPa 0,0 l/m 1,6 km/h (1 Bft) N-NW 337 0 min 0,000 mm 0 W/m 11,0 C 12,3 C 4,8 km/h (1 Bft) 100,00 %
26.07.2015 23:30 12,3 C 12,3 C 12,3 C 92 % 0 cb 1007,7 hPa 0,0 l/m 0,0 km/h (0 Bft) N-NW 337 0 min 0,000 mm 0 W/m 11,0 C 12,3 C 3,2 km/h (1 Bft) 100,00 %
26.07.2015 23:40 12,3 C 12,3 C 12,3 C 93 % 0 cb 1007,7 hPa 0,0 l/m 0,0 km/h (0 Bft) N-NW 337 0 min 0,000 mm 0 W/m 11,2 C 12,3 C 3,2 km/h (1 Bft) 100,00 %
26.07.2015 23:50 12,3 C 12,3 C 12,3 C 92 % 0 cb 1007,6 hPa 0,0 l/m 3,2 km/h (1 Bft) N 360 0 min 0,000 mm 0 W/m 11,0 C 12,3 C 11,3 km/h (2 Bft) 100,00 %
_ Min-Zeit 06:20 06:20 06:20 13:40 00:00 23:50 - 01:40 - - - - - 06:10 06:10 06:10 20:40
Minimum _ 6,5 C 6,5 C 6,6 C 42 % 0 cb 1007,6 hPa - 0,0 km/h (0 Bft) - - - - - 5,6 C 6,6 C 0,0 km/h (0 Bft) 88,16 %
_ Max-Zeit 13:40 13:40 13:40 07:00 00:00 00:00 19:20 13:10 - - 07:30 12:00 12:40 19:20 13:40 13:10 00:10
Maximum _ 21,0 C 20,8 C 21,0 C 96 % 0 cb 1018,9 hPa 0,4 l/m 8,0 km/h
W-NW (2 Bft)
- - 10 min 0,483 mm 1027 W/m 12,8 C 20,9 C 19,3 km/h
NW (3 Bft)
100,00 %
Durchschnitt _ 14,2 C 14,1 C 14,3 C 72 % 0 cb 1014,4 hPa #1,8 l/m 2,4 km/h (1 Bft) W-NW - #9:40 h #3,174 mm 358 W/m 8,6 C 14,2 C 7,7 km/h (2 Bft) 99,45 %
Wetterstation Gdesweiler